EW4365 Weather Reports


Display with metric or nautical units.
time (UTC)temp
F
wind
direction
speed
MPH
gust
MPH
rain 1hr
in
rain 24hr
in
rain mn
in
humidity
%
barometer
mb
20260504081529 49 160 3.0 7.0 0.00 0.00 0.00 72 1010.0
20260504050001 51 167 2.0 6.0 0.00 0.00 0.00 66 1012.3
20260504044602 51 186 1.0 6.0 0.00 0.00 0.00 67 1012.3
20260504043056 50 169 3.0 9.0 0.00 0.00 0.00 68 1012.4
20260504041558 50 174 3.0 6.0 0.00 0.00 0.00 71 1012.5
20260504040052 49 168 2.0 7.0 0.00 0.00 0.00 73 1012.6
20260504034549 49 169 2.0 9.0 0.00 0.00 0.00 73 1012.8
20260504033049 49 163 2.0 5.0 0.00 0.00 0.00 73 1012.9
20260504031549 49 163 2.0 6.0 0.00 0.00 0.00 73 1013.0
20260504030045 48 166 0.0 6.0 0.00 0.00 0.00 75 1013.1
20260504024600 48 167 3.0 7.0 0.00 0.00 0.00 78 1013.2
20260504023048 48 167 1.0 5.0 0.00 0.00 0.00 77 1013.5
20260504021543 48 169 0.0 2.0 0.00 0.00 0.00 76 1013.7
20260504020044 48 169 1.0 7.0 0.00 0.00 0.00 76 1013.5
20260504014541 48 166 3.0 5.0 0.00 0.00 0.00 77 1013.3
20260504013041 48 165 1.0 5.0 0.00 0.00 0.00 76 1013.6
20260504011541 48 185 1.0 4.0 0.00 0.00 0.00 76 1013.6
20260504010040 48 182 1.0 4.0 0.00 0.00 0.00 76 1013.4
20260504004545 48 170 0.0 3.0 0.00 0.00 0.00 75 1013.4
20260504003043 48 172 2.0 4.0 0.00 0.00 0.00 75 1013.5
20260504001542 49 229 1.0 6.0 0.00 0.00 0.00 73 1013.6
20260504000054 49 159 0.0 6.0 0.00 0.00 0.00 73 1013.8
20260503234542 49 208 2.0 7.0 0.00 0.00 0.00 71 1014.0
20260503233036 50 272 6.0 17.0 0.00 0.00 0.00 68 1014.5
20260503231533 51 277 4.0 20.0 0.00 0.00 0.00 65 1014.6
20260503230033 53 302 10.0 19.0 0.00 0.00 0.00 59 1014.4
20260503224532 55 278 8.0 20.0 0.00 0.00 0.00 50 1014.2
20260503223038 57 250 3.0 12.0 0.00 0.00 0.00 46 1014.0
20260503221537 58 273 3.0 13.0 0.00 0.00 0.00 43 1014.1
20260503220031 58 202 3.0 10.0 0.00 0.00 0.00 44 1014.0
20260503214527 58 244 2.0 11.0 0.00 0.00 0.00 43 1014.1
20260503213027 59 238 4.0 14.0 0.00 0.00 0.00 43 1014.3
20260503211525 59 311 2.0 11.0 0.00 0.00 0.00 42 1014.2
20260503210024 59 197 6.0 12.0 0.00 0.00 0.00 42 1014.5
20260503204523 59 295 5.0 10.0 0.00 0.00 0.00 39 1014.6
20260503203028 59 296 5.0 12.0 0.00 0.00 0.00 41 1014.8
20260503201519 59 263 3.0 11.0 0.00 0.00 0.00 42 1014.9
20260503200018 59 269 2.0 15.0 0.00 0.00 0.00 42 1015.0
20260503194516 61 281 3.0 13.0 0.00 0.00 0.00 43 1015.4
20260503193017 60 272 5.0 14.0 0.00 0.00 0.00 40 1015.4
20260503191513 59 288 6.0 13.0 0.00 0.00 0.00 40 1015.7
20260503190009 59 259 5.0 17.0 0.00 0.00 0.00 41 1016.0
20260503184508 60 257 6.0 12.0 0.00 0.00 0.00 43 1016.3
20260503183006 59 308 7.0 17.0 0.00 0.00 0.00 40 1016.5
20260503181503 59 290 6.0 11.0 0.00 0.00 0.00 47 1016.5
20260503180114 59 296 5.0 15.0 0.00 0.00 0.00 44 1016.6
20260503174558 59 295 4.0 15.0 0.00 0.00 0.00 43 1017.1
20260503173100 58 250 5.0 17.0 0.00 0.00 0.00 44 1017.3
20260503171554 58 195 4.0 11.0 0.00 0.00 0.00 44 1017.4